Location: Caltech
(34.1382°N, 118.1253°W)
Time: 06:19:47
(UTC-07:00)

Daily predictions for brighter satellites

Satellite Brightness Start Highest point End
(mag) Time Altitude Azimuth Time Altitude Azimuth Time Altitude Azimuth
Cosmos-2242 4.2 19:33:04 10° SE 19:36:12 20° E 19:39:21 10° NE
Cosmos 2082 Rocket 3.0 19:31:54 10° N 19:36:58 32° ENE 19:41:58 10° SE
Cosmos 1818 3.8 19:33:21 10° NNW 19:38:39 51° ENE 19:43:54 10° SE
USA 215 4.5 19:38:45 10° E 19:43:03 18° ESE 19:47:20 10° SSE
ALOS 2.3 19:40:39 10° SSE 19:45:13 58° ENE 19:49:49 10° N
BREEZE-M DEB (TANK) 3.8 19:42:53 10° W 19:45:19 40° NNW 19:50:15 10° NE
Cosmos 1271 Rocket 3.8 19:42:29 10° SSE 19:45:48 25° E 19:49:09 10° NE
GP-B 4.2 19:45:57 10° SE 19:49:32 24° E 19:53:07 10° NNE
Meteor 1-4 Rocket 2.3 19:46:31 10° S 19:49:57 71° E 19:53:26 10° NNE
Meteor 1-24 Rocket 4.3 19:46:29 10° NNW 19:52:01 63° W 19:57:44 10° S
Cosmos 1674 3.7 19:49:16 10° NNE 19:52:29 25° ENE 19:55:42 10° SE
PSLV R/B 3.8 19:50:34 10° SW 19:53:28 35° SSE 19:55:48 14° E
Spot 2 Rocket 3.9 19:50:32 10° SE 19:55:21 44° ENE 20:00:12 10° N
Cosmos 1758 3.2 19:52:40 10° S 19:56:39 85° E 20:00:39 10° N
Resurs 01 Rocket 1.8 19:56:45 10° SSE 20:01:00 51° ENE 20:05:19 10° N
Cosmos 1953 2.3 19:58:04 10° S 20:02:08 90° ESE 20:06:12 10° N
GPS 2-05 Rocket1 3.1 19:59:37 10° W 20:03:07 67° N 20:05:45 17° E
Cosmos 2098 Rocket 4.4 19:56:46 10° S 20:04:01 79° E 20:11:37 10° N
Cosmos 1544 3.9 20:01:37 10° SSW 20:05:11 54° W 20:08:48 10° N
Delta 128 4.5 20:05:42 10° WSW 20:10:01 36° S 20:12:48 18° SE
CZ-4C R/B 3.2 20:07:59 10° SSE 20:11:32 19° ESE 20:12:09 19° E
OAO 2 Rocket 3.6 20:06:35 10° SW 20:11:35 53° SSE 20:15:07 19° E
Envisat 4.1 20:11:41 19° ESE 20:13:45 24° ENE 20:17:47 10° NNE
Cosmos 1939 Rocket 4.5 20:17:33 18° ENE 20:17:34 18° ENE 20:20:24 10° NNE
SeaSat 1 2.4 20:12:42 10° SSE 20:17:35 72° ENE 20:22:31 10° NNW
Cosmos 2369 Rocket 3.3 20:18:33 10° SSE 20:23:53 22° E 20:27:11 10° NE
CZ-2D R/B 3.2 20:19:32 10° SSE 20:23:18 70° ENE 20:27:10 10° N
Cosmos 2100 Rocket 4.0 20:17:22 10° S 20:23:37 67° E 20:29:56 10° NNE
ISS -1.2 20:22:00 10° W 20:24:29 20° NNW 20:26:58 10° NNE
Lacrosse 5 rocket 1.9 20:21:25 10° NNW 20:24:58 34° NE 20:25:53 29° ENE
FENGYUN 3A 4.3 20:20:38 10° S 20:25:55 57° W 20:31:15 10° NNW
Delta 168 4.3 20:24:01 10° WSW 20:27:21 21° S 20:28:30 18° SSE
Helios 1B rocket 2.4 20:24:10 10° NNE 20:28:15 59° ESE 20:32:17 10° S
Geosat 3.9 20:24:42 10° NNE 20:29:44 72° ESE 20:34:44 10° SSW
H-2A R/B 3.8 20:26:10 10° WSW 20:31:26 65° SSE 20:52:51 21° E
H-2A R/B 3.8 20:26:10 10° WSW 20:31:26 65° SSE 20:52:48 21° E
H-2A R/B 3.8 20:26:11 10° WSW 20:31:26 65° SSE 20:52:53 21° E
H-2A R/B 3.8 20:26:11 10° WSW 20:31:26 65° SSE 20:52:52 21° E
H-2A R/B 3.8 20:26:11 10° WSW 20:31:26 65° SSE 20:52:51 21° E
H-2A R/B 3.8 20:26:10 10° WSW 20:31:26 65° SSE 20:52:54 21° E
Cosmos 1048 Rocket 4.1 20:26:32 10° NNW 20:31:39 76° WSW 20:36:45 10° S
Cosmos 1408 Rocket 3.5 20:28:12 10° N 20:32:42 89° WSW 20:37:09 10° S
Resurs 1-3 3.7 20:29:23 10° S 20:33:44 76° WSW 20:38:08 10° NNW
TIMED 4.4 20:31:53 10° SSW 20:36:15 88° WNW 20:40:38 10° NNE
Cosmos 1733 3.5 20:34:10 10° SSW 20:38:00 69° W 20:41:53 10° N
Cosmos 1833 Rocket 2.7 20:32:47 10° NNW 20:38:25 82° WSW 20:43:06 15° SSE
CZ-3 Stage 3 3.7 19:55:49 10° W 20:42:09 77° S 20:46:33 31° ESE
Cosmos 1842 Rocket 3.5 20:42:30 26° SSE 20:44:48 58° E 20:49:07 10° NNE
H-II Stage 2 2.6 20:43:10 10° WSW 20:44:24 24° SSW 20:44:24 24° SSW
ATLAS 5 CENTAUR R/B 3.7 20:41:03 10° WSW 20:45:09 30° NW 20:49:33 10° N
Cosmos 1470 3.6 20:41:47 10° SSW 20:45:39 51° W 20:49:33 10° N
Cosmos 1802 Rocket 3.8 20:42:42 10° S 20:48:49 84° E 20:55:01 10° N
Meteor 1-29 2.9 20:46:49 10° N 20:50:19 85° W 20:51:34 38° SSW
Helios 1A 2.9 20:49:21 38° SSE 20:50:56 89° W 20:55:08 10° NNW
SAR-Lupe-4 4.2 21:00:29 46° SW 21:01:08 54° W 21:04:39 10° NNW
SJ-11-01 4.1 21:07:14 75° ESE 21:07:33 79° ENE 21:12:16 10° N
Cosmos 1340 Rocket 3.7 21:04:07 10° NNW 21:07:58 47° W 21:09:07 36° SW
Aurora 2 Rocket 4.1 21:01:57 10° WSW 21:08:36 34° S 21:09:22 33° S
Cosmos 1356 Rocket 4.1 21:07:02 10° N 21:09:54 44° N 21:09:54 44° N
Cosmos 2251 Rocket 3.4 21:11:37 10° NNW 21:16:58 80° ENE 21:17:07 79° E
Cosmos 2082 Rocket 3.9 21:16:05 10° NW 21:20:54 29° WSW 21:25:31 11° SSW
Cosmos 1864 Rocket 4.4 21:18:56 29° S 21:22:23 88° E 21:28:43 10° N
USA 215 3.1 21:19:54 10° NE 21:26:28 90° SE 21:33:00 10° SW
Meteor 1-11 4.3 21:33:43 10° NNW 21:39:11 71° W 21:39:11 71° W
Cosmos 494 Rocket 4.5 21:35:29 10° NNW 21:40:05 55° W 21:40:05 55° W
Envisat 4.4 21:51:52 31° WSW 21:52:33 32° W 21:57:05 10° NW
CZ-4C R/B 3.3 21:54:29 10° SW 22:02:39 23° N 22:05:00 10° NNE
ERS-1 Rocket 4.3 22:03:12 36° NW 22:03:12 36° NW 22:06:24 10° NNW
Lacrosse 5 rocket 4.4 22:01:23 10° WNW 22:01:37 11° W 22:01:37 11° W
Cosmos 2369 Rocket 3.3 22:01:18 10° SW 22:06:34 40° WNW 22:11:50 10° N
H-2A R/B 4.3 22:21:02 17° N 22:21:02 17° N 22:22:16 10° N
